Regional Weather Roundup
Issued by NWS New Orleans/Baton Rouge, LA

Home | Current Version | Previous Version | Graphics & Text | Print | Product List | Glossary On
Versions: 1 2 3 4 5 6 7 8 9 10 11 12 13 14 15 16 17 18 19 20 21 22 23 24 25 26 27 28 29 30 31 32 33 34 35 36 37 38 39 40 41 42 43 44 45 46 47 48 49 50
659
ASUS44 KLIX 301001
RWRLIX
NEW ORLEANS REGIONAL WEATHER ROUNDUP
NATIONAL WEATHER SERVICE NEW ORLEANS LA
500 AM CDT WED JUL 30 2014

NOTE: "FAIR" INDICATES FEW OR NO CLOUDS BELOW 12,000 FEET WITH NO
      SIGNIFICANT WEATHER AND/OR OBSTRUCTIONS TO VISIBILITY.
      SKY/WX - SKY CONDITION AND SIGNIFICANT WEATHER.
      TMP - AIR TEMPERATURE.     DP    - DEWPOINT TEMPERATURE.
      RH  - RELATIVE HUMIDITY.   PRES  - PRESSURE.
      HI  - HEAT INDEX.          WCI   - WIND CHILL INDEX.

*  THESE STATIONS ARE NOT NWS OR FAA STATIONS AND ARE NOT UNDER
   NWS QUALITY CONTROL.

LAZ038-040-048-061>063-065>067-069-301100-
SOUTHEAST LOUISIANA

CITY           SKY/WX    TMP DP  RH WIND       PRES   REMARKS
N.O. AUDUBON   NOT AVBL
N.O. INTL ARPT PTCLDY    76  64  66 NE10      30.04R
N.O. LAKEFRONT CLEAR     77  62  59 E17       30.05R
N.O. DOWNTOWN*   N/A     75  61  60 N6        30.05R
SLIDELL        CLEAR     68  64  87 CALM      30.04R
BATON ROUGE    MOCLDY    69  63  81 NE6       30.06S
BOOTHVILLE     CLEAR     79  70  74 NE10      30.02R
BELLE CHASSE   CLEAR     74  64  71 N5        30.04R
BOGALUSA*        N/A     65  61  86 CALM      30.07S
GALLIANO*      NOT AVBL
NEW ROADS*     PTSUNNY   69  63  79 NE3       30.07R
GONZALES*        N/A     70  67  89 CALM      30.05S
HAMMOND*       PTCLDY    68  61  77 CALM      30.07S
HOUMA*         CLEAR     72  66  82 N3        30.04S
PORT FOURCHON* SUNNY     81  72  74 NE9       30.04R

$$

MSZ070-080>082-301100-
SOUTHERN MISSISSIPPI

CITY           SKY/WX    TMP DP  RH WIND       PRES   REMARKS
MCCOMB         CLEAR     66  59  78 N3        30.07S
GULFPORT       PTCLDY    73  61  65 N7        30.03R
BILOXI         PTCLDY    71  62  74 NE9       30.03S
PASCAGOULA     CLEAR     67  61  81 N6        30.03S

$$

COASTAL OBSERVATIONS
LAKE AND NEARSHORE STATIONS

STATION/POSITION TIME  TEMP    WIND        PRES    WAVE
                       AIR SEA DIR/SP/G            HT/PER
                 (UTC) (F)     (DEG/KT/KT) (MB)    (FT/S)
PASCAGOULA       0900   73      20/  6/  9 1016.2
WAVELAND YACHT   0900   73      30/  9/ 12 1016.4
GRAND ISLE       0900   80 86   50/  8/ 14 1017.0
SOUTHWEST PASS   0900   83 84   20/ 10/ 11 1016.3
NEW CANAL        0900   78 83   60/ 13/ 16 1017.5
SHELL BEACH      0900   78 80   40/ 15/ 17 1016.6

OFFSHORE STATIONS

STATION/POSITION TIME  TEMP    WIND        PRES    WAVE
                       AIR SEA DIR/SP/G            HT/PER
                 (UTC) (F)     (DEG/KT/KT) (MB)    (FT/S)
64 S DAUPHIN ISL 0903   83 85  300/  4/  6 1015.7

$$




USA.gov is the U.S. government's official web portal to all federal, state and local government web resources and services.